March 25, 2017
|
Cedarville U. - Cedarville, OH

Women's 1500 Meters

Top↑
PL NAME YEAR TEAM TIME TIME TIME TIME TIME TIME SC
1 Alexandra Brown SR-4 Wright State 4:37.25 4:26.16 5:24.39 3:19.62 5:21.61 5:04.98 10
2 Madison Paquette Sophomore Cleary 4:43.12 3:26.68 5:31.25 6:02.40 5:22.76 3:21.02 8
3 Kacy Dunn SR-4 Cedarville 4:44.62 5:10.24 4:38.93 4:36.09 5:21.62 3:30.62 6
4 Grace Norman FR-1 Cedarville 4:47.34 3:38.38 4:53.09 5:24.70 4:50.22 5:10.33 5
5 Carly Rose JR-3 Cedarville 4:48.07 5:25.52 4:36.55 5:05.36 3:30.30 5:19.76 4
6 Ariel Young SO-2 Ohio Christian 4:52.64 4:29.23 3:30.70 4:55.57 5:13.13 3:51.19 3
7 Katie Vance JR-3 Mount Union 4:55.46 4:17.05 5:04.33 5:07.28 4:34.78 5:01.37 2
8 Rachel Gerber SO-2 Mount Vernon Nazarene 4:57.23 4:54.26 5:18.04 3:36.98 6:17.49 5:38.85 1
9 Elaine LaBarge Junior Cleary 4:59.04 6:22.78 4:35.12 6:22.78 4:11.20 4:26.15 -
10 Jessica Doepker SR-4 Wright State 4:59.72 3:53.79 4:35.75 4:17.76 6:05.66 6:05.66 -
11 Nicole Huber SR-4 Ohio Northern 4:59.92 5:26.92 6:23.90 3:50.94 6:26.90 3:35.95 -
12 Mallory Munderloh SO-2 Alma 5:04.56 5:38.07 6:11.57 3:57.56 6:17.66 3:36.24 -
13 Rachel McGuire JR-3 Mount Union 5:05.12 5:32.58 4:22.41 5:02.07 4:59.02 5:35.64 -
14 Krista Green FR-1 Cedarville 5:05.87 4:47.52 4:56.70 5:05.87 5:21.17 5:45.64 -
15 Hannah Reigle SO-2 Mount Union 5:06.74 5:12.88 3:43.92 4:36.07 6:26.50 5:31.28 -
16 Cameron Trachtman SR-4 Hanover 5:07.24 5:22.61 4:39.59 4:11.94 5:22.61 6:33.27 -
17 Zoe Schilling FR-1 Ohio Northern 5:07.77 5:17.01 6:09.33 5:50.86 4:21.61 5:35.47 -
18 Kira Judd SO-2 Otterbein 5:08.19 4:28.13 4:55.87 4:46.62 6:03.67 6:34.49 -
19 Rachel House JR-3 Heidelberg 5:08.20 4:55.88 3:38.83 5:57.52 3:41.91 4:52.79 -
20 Ellis Beardsley SR-4 Mount Union 5:08.41 6:03.93 5:51.59 5:51.59 4:00.56 4:00.56 -
21 Lindsey Ruff SO-2 Otterbein 5:08.68 4:13.12 6:25.85 4:34.73 6:07.33 4:59.42 -
22 Shelby Nolan FR-1 Wright State 5:09.24 5:52.54 6:01.81 3:36.47 6:01.81 5:15.43 -
23 Julissa Poullet SR-4 Otterbein 5:09.64 3:58.43 6:20.86 4:07.72 4:01.52 6:39.44 -
24 Allison Currey FR-1 Otterbein 5:10.05 5:56.56 4:08.04 5:19.36 4:04.94 5:31.76 -
25 Meredith Wesco SR-4 Otterbein 5:10.10 5:07.00 5:19.41 6:02.82 5:19.41 5:50.42 -
26 Katy Foltz SO-2 Otterbein 5:10.17 4:51.56 5:56.70 6:21.51 4:57.77 6:06.00 -
27 Madeleine Routhier FR-1 Ohio Northern 5:12.13 5:15.26 6:30.17 5:24.62 6:30.17 6:23.92 -
28 Larkin Joseph SO-2 Capital 5:12.92 6:02.99 4:04.08 5:56.73 4:51.02 5:12.92 -
29 Morgan Hamilton SO-2 Hanover 5:13.00 4:10.40 6:28.12 6:18.73 6:03.08 5:06.74 -
30 Elizabeth Martin SR-4 Ohio Northern 5:13.11 4:54.33 6:37.65 6:12.60 5:41.29 5:31.90 -
31 Aleighsha Engisch Junior Cleary 5:13.70 4:51.75 6:35.27 5:48.21 5:38.80 3:39.59 -
32 Danielle Deshuk FR-1 Capital 5:14.55 6:45.77 6:30.05 6:04.88 5:11.41 4:33.66 -
33 Blaire Showers FR-1 Alma 5:15.05 3:46.84 5:18.20 6:33.82 4:43.55 3:43.69 -
34 Kristina Steingass SO-2 Wright State 5:15.32 6:18.39 5:15.32 5:40.55 3:56.49 3:50.19 -
35 Amanda Elkins SO-2 Heidelberg 5:16.70 5:07.20 4:35.53 5:29.37 5:10.37 5:29.37 -
36 Kristina Myers SO-2 Ohio Northern 5:16.72 6:45.41 4:54.55 4:38.72 4:35.55 5:29.39 -
37 Colleen Grainger SO-2 Ohio Northern 5:17.58 4:29.95 5:39.81 6:05.22 6:46.51 6:49.68 -
38 Samantha Koester SO-2 Capital 5:17.61 6:49.72 3:45.51 4:07.74 6:30.66 3:42.33 -
39 Katie Driggs JR-3 Mount Vernon Nazarene 5:20.00 6:04.80 5:04.00 5:55.20 6:56.00 6:30.40 -
40 Aly Turrentine FR-1 Ohio Christian 5:20.52 5:49.37 4:35.65 6:50.27 5:10.91 6:43.86 -
41 Sarah Rini JR-3 Capital 5:20.88 4:48.80 6:12.22 4:19.92 5:20.88 4:23.13 -
42 Cadence Faurote JR-3 St. Francis (Ind.) 5:21.83 4:40.00 4:20.69 6:29.42 5:05.74 4:56.09 -
43 Jocelyn Reinhart SO-2 Ohio Northern 5:22.26 6:42.83 6:17.05 4:53.26 5:35.15 6:42.83 -
44 Nicole Laskowski FR-1 Mount Union 5:23.37 4:25.17 6:44.22 4:38.10 6:11.88 5:20.14 -
45 Kathleen Colvin FR-1 Ohio Northern 5:23.71 5:52.85 6:05.80 3:53.08 6:25.22 4:31.92 -
46 Marcella McHenry FR-1 Ursuline (Ohio) 5:25.93 5:58.53 6:01.79 5:09.64 3:54.67 6:57.19 -
47 Devony Miller SO-2 Bluffton 5:26.10 6:41.11 6:31.32 6:44.37 4:50.23 5:09.80 -
48 Cassady Shultz SR-4 Otterbein 5:27.67 5:44.06 3:59.20 4:05.76 3:52.65 6:29.93 -
49 Chelsea Edwards SO-2 Ursuline (Ohio) 5:28.17 6:23.96 4:09.41 7:00.06 6:30.53 3:59.57 -
50 Jennie Matteson SO-2 Bluffton 5:28.33 4:35.80 5:15.20 6:24.15 4:02.97 6:30.72 -
51 Alissa Hauke JR-3 Bluffton 5:30.27 6:46.24 4:24.22 5:53.39 4:24.22 4:37.43 -
52 Anna Hairston SR-4 Bluffton 5:31.05 4:28.15 5:24.43 6:33.95 5:50.92 4:28.15 -
53 Corinne Saul FR-1 Otterbein 5:31.05 6:33.95 6:50.51 5:40.99 4:54.64 5:54.23 -
54 Courtney Davis Sophomore Cleary 5:31.90 5:55.14 5:48.50 6:54.88 5:48.50 5:38.54 -
55 Anna Thayer FR-1 Cedarville 5:32.46 5:29.14 4:29.30 5:22.49 5:52.41 6:55.58 -
56 Katlin Robinson SR-4 St. Francis (Ind.) 5:35.62 4:15.08 5:55.76 7:06.24 4:25.14 6:56.17 -
57 Elizabeth Steele SO-2 Ohio Northern 5:37.64 5:54.53 5:07.26 6:41.80 5:30.89 4:57.13 -
58 Caitlyn Tulloss JR-3 Capital 5:39.32 4:48.43 5:52.90 6:37.01 6:33.62 4:31.46 -
59 Nicole Tennison JR-3 Heidelberg 5:40.06 5:09.46 5:29.86 5:29.86 4:04.85 5:06.06 -
60 Carlie Watt   Ohio State Running Club 5:40.81 5:57.85 5:47.63 5:44.22 4:42.88 4:46.28 -
61 Jasmine Stein FR-1 Lourdes 5:43.68 5:02.44 4:21.20 5:57.43 5:29.94 6:59.29 -
62 Arie Cox FR-1 Bluffton 5:48.26 4:10.75 7:15.33 5:51.75 7:04.88 6:09.16 -
63 Juliana Dotson FR-1 Lourdes 5:49.43 6:59.32 5:00.51 5:52.93 5:42.45 6:20.88 -
64 Morgan Cukierski JR-3 Lourdes 5:50.95 5:05.33 5:15.86 5:43.94 6:40.09 4:44.27 -
65 Ariel Barlow FR-1 Hanover 5:52.11 4:45.21 5:38.03 7:13.10 6:02.68 7:09.58 -
66 Michelle Kelsey SO-2 Bluffton 5:52.94 5:49.41 4:42.36 6:45.89 6:56.47 6:56.47 -
67 Paige Giessler SR-4 Ohio Northern 5:55.10 7:16.78 5:55.10 4:29.88 5:37.35 6:55.47 -
68 Renee Kraft SR-4 Ohio Northern 5:55.60 6:24.05 6:38.28 4:51.60 6:52.50 6:16.94 -
69 Megan Falknor   Ohio State Running Club 6:05.03 7:18.04 5:02.98 4:55.68 6:45.19 5:35.83 -
70 Rheeme Zayed FR-1 Cedarville 6:07.35 4:20.82 7:06.13 4:20.82 7:46.54 4:46.54 -
71 Taylor Aurand SO-2 Bluffton 6:08.86 5:54.11 7:26.32 6:01.49 7:44.77 7:55.83 -
72 Megan Lefeld SR-4 Heidelberg 6:09.84 5:40.26 5:18.07 7:49.70 6:46.83 8:00.80 -
73 Emily Waldvogel FR-1 Capital 6:17.92 7:25.95 4:43.44 5:51.47 5:47.69 8:03.74 -
74 Nicole Baumer SR-4 Wright State 6:26.20 6:03.03 5:47.58 7:20.27 8:02.75 8:18.20 -
75 Samantha Bensman FR-1 Heidelberg 6:31.23 8:09.04 7:18.18 7:33.83 6:39.06 5:09.08 -
76 Megan Lewis   Ohio State Running Club 6:44.86 7:17.25 7:21.30 6:44.86 5:31.99 7:37.50 -
  Bryanna Bolha SO-2 Mount Vernon Nazarene DNF DNF DNF DNF DNF DNF -
  Sara Stewart FR-1 Ohio Christian DNF DNF DNF DNF DNF DNF -
Women's 1500 Meters Section 1
PL NAME YEAR TEAM TIME TIME SC
1 Alexandra Brown SR-4 Wright State 3:50.12 4:37.25 10
2 Madison Paquette Sophomore Cleary 4:54.45 4:43.12 8
3 Kacy Dunn SR-4 Cedarville 3:39.16 4:44.62 6
4 Grace Norman FR-1 Cedarville 6:02.05 4:47.34 5
5 Carly Rose JR-3 Cedarville 4:30.79 4:48.07 4
6 Ariel Young SO-2 Ohio Christian 5:51.17 4:52.64 3
7 Katie Vance JR-3 Mount Union 4:14.10 4:55.46 2
9 Elaine LaBarge Junior Cleary 5:05.02 4:59.04 -
10 Jessica Doepker SR-4 Wright State 6:23.65 4:59.72 -
12 Mallory Munderloh SO-2 Alma 4:31.06 5:04.56 -
19 Rachel House JR-3 Heidelberg 4:43.55 5:08.20 -
23 Julissa Poullet SR-4 Otterbein 4:01.52 5:09.64 -
26 Katy Foltz SO-2 Otterbein 4:01.94 5:10.17 -
33 Blaire Showers FR-1 Alma 4:21.50 5:15.05 -
49 Chelsea Edwards SO-2 Ursuline (Ohio) 5:28.17 5:28.17 -
Women's 1500 Meters Section 2
PL NAME YEAR TEAM TIME SC
8 Rachel Gerber SO-2 Mount Vernon Nazarene 4:57.23 1
11 Nicole Huber SR-4 Ohio Northern 4:59.92 -
13 Rachel McGuire JR-3 Mount Union 5:05.12 -
14 Krista Green FR-1 Cedarville 5:05.87 -
15 Hannah Reigle SO-2 Mount Union 5:06.74 -
16 Cameron Trachtman SR-4 Hanover 5:07.24 -
17 Zoe Schilling FR-1 Ohio Northern 5:07.77 -
18 Kira Judd SO-2 Otterbein 5:08.19 -
21 Lindsey Ruff SO-2 Otterbein 5:08.68 -
22 Shelby Nolan FR-1 Wright State 5:09.24 -
24 Allison Currey FR-1 Otterbein 5:10.05 -
25 Meredith Wesco SR-4 Otterbein 5:10.10 -
27 Madeleine Routhier FR-1 Ohio Northern 5:12.13 -
31 Aleighsha Engisch Junior Cleary 5:13.70 -
38 Samantha Koester SO-2 Capital 5:17.61 -
42 Cadence Faurote JR-3 St. Francis (Ind.) 5:21.83 -
47 Devony Miller SO-2 Bluffton 5:26.10 -
51 Alissa Hauke JR-3 Bluffton 5:30.27 -
Women's 1500 Meters Section 3
PL NAME YEAR TEAM TIME TIME TIME TIME TIME SC
20 Ellis Beardsley SR-4 Mount Union 6:03.93 3:38.98 4:40.66 5:08.41 3:42.06 -
29 Morgan Hamilton SO-2 Hanover 4:51.09 5:53.69 5:50.56 5:13.00 5:28.65 -
30 Elizabeth Martin SR-4 Ohio Northern 6:15.74 6:34.52 5:28.77 5:13.11 5:25.64 -
34 Kristina Steingass SO-2 Wright State 6:08.93 5:12.17 6:46.77 5:15.32 6:37.31 -
35 Amanda Elkins SO-2 Heidelberg 4:03.86 4:35.53 6:35.88 5:16.70 5:13.54 -
37 Colleen Grainger SO-2 Ohio Northern 6:17.92 6:46.51 6:02.05 5:17.58 6:36.98 -
39 Katie Driggs JR-3 Mount Vernon Nazarene 5:13.60 3:53.60 4:03.20 5:20.00 4:16.00 -
40 Aly Turrentine FR-1 Ohio Christian 5:46.17 4:00.39 6:11.81 5:20.52 4:54.88 -
41 Sarah Rini JR-3 Capital 4:07.08 5:24.09 5:40.14 5:20.88 6:34.69 -
43 Jocelyn Reinhart SO-2 Ohio Northern 6:42.83 5:28.71 4:40.37 5:22.26 3:45.59 -
44 Nicole Laskowski FR-1 Mount Union 4:38.10 3:59.30 5:16.91 5:23.37 6:44.22 -
45 Kathleen Colvin FR-1 Ohio Northern 5:36.66 4:02.79 6:15.51 5:23.71 6:31.69 -
46 Marcella McHenry FR-1 Ursuline (Ohio) 6:11.56 4:53.34 4:33.79 5:25.93 4:17.49 -
48 Cassady Shultz SR-4 Otterbein 4:35.25 5:57.16 4:18.86 5:27.67 6:46.31 -
50 Jennie Matteson SO-2 Bluffton 5:08.63 7:03.55 6:43.85 5:28.33 4:42.37 -
52 Anna Hairston SR-4 Bluffton 6:17.40 6:43.89 5:40.99 5:31.05 6:33.95 -
53 Corinne Saul FR-1 Otterbein 7:10.37 4:24.84 5:24.43 5:31.05 6:24.02 -
  Bryanna Bolha SO-2 Mount Vernon Nazarene DNF DNF DNF DNF DNF -
Women's 1500 Meters Section 4
PL NAME YEAR TEAM TIME TIME TIME TIME TIME SC
36 Kristina Myers SO-2 Ohio Northern 6:45.41 6:32.74 5:13.56 5:16.72 4:26.05 -
54 Courtney Davis Sophomore Cleary 5:38.54 4:18.89 4:32.16 5:31.90 7:04.84 -
55 Anna Thayer FR-1 Cedarville 6:55.58 5:12.52 6:48.93 5:32.46 5:35.79 -
59 Nicole Tennison JR-3 Heidelberg 4:25.25 6:27.67 5:06.06 5:40.06 6:48.08 -
60 Carlie Watt   Ohio State Running Club 5:54.45 5:16.96 3:58.57 5:40.81 6:59.20 -
62 Arie Cox FR-1 Bluffton 5:34.33 5:09.96 5:58.71 5:48.26 5:02.99 -
66 Michelle Kelsey SO-2 Bluffton 6:52.94 5:31.77 5:10.59 5:52.94 4:07.06 -
67 Paige Giessler SR-4 Ohio Northern 5:23.15 4:19.23 4:36.98 5:55.10 6:05.76 -
70 Rheeme Zayed FR-1 Cedarville 6:55.11 6:44.09 6:44.09 6:07.35 7:39.19 -
71 Taylor Aurand SO-2 Bluffton 5:17.22 7:18.95 4:36.65 6:08.86 4:18.21 -
74 Nicole Baumer SR-4 Wright State 4:30.34 8:06.62 8:06.62 6:26.20 4:49.65 -
  Sara Stewart FR-1 Ohio Christian DNF DNF DNF DNF DNF -
Women's 1500 Meters Section 5
PL NAME YEAR TEAM TIME TIME TIME SC
28 Larkin Joseph SO-2 Capital 5:19.18 3:45.31 5:12.92 -
32 Danielle Deshuk FR-1 Capital 5:23.99 6:23.76 5:14.55 -
56 Katlin Robinson SR-4 St. Francis (Ind.) 5:15.49 4:41.92 5:35.62 -
57 Elizabeth Steele SO-2 Ohio Northern 5:00.50 5:34.27 5:37.64 -
58 Caitlyn Tulloss JR-3 Capital 4:04.31 4:34.85 5:39.32 -
61 Jasmine Stein FR-1 Lourdes 6:38.67 7:06.17 5:43.68 -
63 Juliana Dotson FR-1 Lourdes 6:59.32 4:11.59 5:49.43 -
64 Morgan Cukierski JR-3 Lourdes 5:47.44 5:12.35 5:50.95 -
65 Ariel Barlow FR-1 Hanover 5:16.90 5:55.64 5:52.11 -
68 Renee Kraft SR-4 Ohio Northern 4:33.82 4:37.37 5:55.60 -
69 Megan Falknor   Ohio State Running Club 5:02.98 5:24.88 6:05.03 -
72 Megan Lefeld SR-4 Heidelberg 6:39.43 4:52.18 6:09.84 -
73 Emily Waldvogel FR-1 Capital 5:43.91 7:03.27 6:17.92 -
75 Samantha Bensman FR-1 Heidelberg 7:02.53 7:45.57 6:31.23 -
76 Megan Lewis   Ohio State Running Club 8:34.18 8:17.98 6:44.86 -